CAPE
1297 1654 1867 1945 1783 1584 1549 1548 1439 1197 1152 1209 1187 1204 1244 1199 1112 932 756 484 226 237 48 18 73 8 6 8 12 10 7 26 43 27 20 20 20 22 16 12 17 0 23
551 1597 1920 1923 1851 1689 1588 1595 1514 1269 1339 1308 1243 1334 1227 1110 987 842 510 259 391 338 29 28 15 9 4 0 2 3 2 6 20 27 25 30 23 15 11 13 29 7 19
447 854 1816 1753 1865 1816 1783 1682 1695 1754 1682 1592 1467 1321 1228 1042 900 668 325 375 498 415 60 36 26 18 10 11 0 0 1 3 12 3 2 0 8 27 31 62 126 62 44
408 519 1683 1660 1740 1776 1712 1684 1747 1796 1733 1576 1545 1411 1324 1001 858 566 371 334 521 519 93 60 34 9 2 15 0 0 0 0 0 0 0 0 6 20 43 48 44 51 54
387 365 1203 1478 1365 1373 1415 1634 1654 1616 1512 1493 1450 1527 1236 966 802 544 311 316 517 493 31 5 0 0 0 0 0 0 0 0 0 0 0 0 0 16 27 15 14 30 30
304 196 875 980 882 827 952 1363 1548 1494 1302 1345 1382 1501 1196 929 704 462 299 251 465 381 2 0 0 0 0 0 0 0 0 0 0 0 0 0 0 17 19 15 14 14 13
14 32 94 817 456 812 1100 1497 1335 1247 1173 1286 1361 1327 1027 827 665 455 250 187 213 56 0 0 0 7 0 0 0 0 0 0 0 0 0 0 0 14 18 15 17 17 17
133 47 138 315 537 698 1137 1001 958 913 1015 1193 1262 1181 822 683 541 420 259 154 28 0 0 0 0 0 0 0 0 0 0 0 0 0 0 0 5 13 18 17 15 14 15
273 39 10 23 11 40 323 341 479 583 877 1098 1108 837 543 435 398 360 203 70 0 0 0 0 0 0 0 0 0 0 0 0 0 0 0 0 8 11 11 12 10 13 14
99 9 1 16 1 3 0 188 178 359 682 858 847 572 300 279 281 195 16 0 0 0 0 0 0 0 1 0 0 0 0 0 0 0 0 0 7 8 11 14 9 9 8
75 47 38 1 0 0 0 2 89 362 521 519 556 330 150 129 36 0 0 0 0 0 0 0 0 1 8 0 0 0 0 0 0 0 0 5 5 7 10 8 7 7 5
41 14 2 1 0 2 2 11 4 120 410 410 344 215 78 26 0 0 0 0 0 0 0 0 0 0 0 0 0 0 0 0 0 0 0 5 1 3 3 5 5 4 3
2 4 3 2 0 1 0 0 5 30 45 187 125 59 2 2 0 0 0 0 0 0 0 0 0 0 0 0 0 0 0 0 0 0 0 4 1 0 1 0 0 1 0
2 2 4 6 4 1 2 0 1 0 0 33 45 20 8 0 0 0 0 0 0 0 0 0 0 0 0 0 0 0 0 0 0 0 0 4 6 1 2 1 0 0 0
1 2 6 6 2 0 0 0 0 0 0 9 54 11 19 8 0 0 0 0 0 0 0 0 0 0 0 0 0 0 0 0 0 0 0 0 1 3 2 2 0 0 0
3 2 1 7 4 0 0 4 6 21 43 82 31 22 6 1 0 0 0 0 0 0 0 0 0 0 0 0 0 0 0 0 0 0 0 0 0 3 7 2 2 0 0
3 2 0 1 6 3 0 0 3 0 0 0 8 0 0 0 0 0 0 0 0 0 0 0 0 0 0 0 0 0 0 0 0 0 0 0 0 0 5 0 0 0 0
4 4 3 2 1 0 0 0 0 0 12 2 0 1 11 1 0 0 0 0 0 0 0 0 0 0 0 0 0 0 0 0 0 0 0 0 0 0 0 0 0 0 0
3 5 6 3 1 0 0 0 0 0 4 20 24 14 6 0 0 0 0 0 0 0 0 0 0 0 0 0 0 0 0 0 0 0 0 0 0 0 0 0 0 0 0
3 2 3 2 0 0 0 0 0 0 0 0 5 17 3 1 5 0 0 0 0 0 0 0 0 0 0 0 0 0 0 0 0 0 0 0 0 0 0 0 0 0 0
1 0 1 0 0 0 0 0 0 5 0 0 0 2 20 16 22 8 0 0 0 0 0 0 0 0 0 0 0 0 0 0 0 0 0 0 0 0 0 0 0 0 0
3 0 0 0 0 0 0 0 0 0 0 0 0 0 0 9 35 4 0 0 0 0 0 0 0 0 0 0 0 0 0 0 0 0 0 0 0 0 0 0 0 0 0
0 0 0 0 0 0 0 0 0 0 0 0 0 0 0 0 6 0 0 0 0 0 0 0 0 0 0 0 0 0 0 0 0 0 0 0 0 0 0 0 0 0 0
0 1 0 0 0 0 0 0 0 0 0 0 0 0 0 0 0 0 0 0 0 0 0 0 0 0 0 0 0 0 0 0 0 0 0 0 0 0 0 0 0 0 0
0 0 0 0 0 0 0 0 0 0 0 0 0 0 0 0 0 0 5 0 0 0 0 0 0 0 0 0 0 0 0 0 0 0 0 0 0 0 0 0 0 0 0
0 0 0 0 0 0 0 0 0 0 0 0 0 0 0 0 0 0 4 11 6 0 0 0 0 0 0 0 0 0 0 0 0 0 0 0 0 0 0 0 0 0 0
CIN
-93 -24 -1 0 0 0 -6 -60 -97 -50 -144 -46 -42 -17 0 0 0 0 0 0 -4 -1 -131 -135 -73 0 0 0 0 0 0 0 -1 0 0 0 0 0 0 0 0 -8 0
-316 -21 0 0 -2 -2 -1 0 -9 -113 -121 -46 -18 -4 0 0 -5 -2 -6 -14 0 0 -142 -155 0 0 0 0 0 0 0 0 0 0 0 0 0 0 0 0 0 0 0
-380 -160 0 -19 -48 -28 -8 -4 0 -3 -26 -35 -5 0 0 0 -1 -1 -39 -7 0 0 -90 -145 -9 0 0 0 0 0 0 0 0 0 -2 0 -3 0 0 0 -37 0 0
-431 -376 -10 -59 -84 -107 -90 -26 -1 -9 -1 -10 -7 0 0 0 0 -3 -22 -8 0 0 -65 -84 -48 0 0 0 0 0 0 0 0 0 0 0 -2 0 0 -1 0 0 0
-405 -374 -74 -60 -100 -142 -145 -26 -2 -8 -8 -1 0 0 0 0 0 -2 -27 -14 0 0 -112 0 0 0 0 0 0 0 0 0 0 0 0 0 0 -1 0 0 0 -2 -3
-369 -432 -96 -65 -122 -211 -209 -41 0 0 -6 -16 -3 0 0 -1 0 -18 -53 -28 0 0 0 0 0 0 0 0 0 0 0 0 0 0 0 0 0 0 0 0 0 0 0
-419 -425 -256 -34 -71 -122 -94 -1 -1 -5 -5 -6 -12 0 0 0 0 -2 -26 -24 -19 -83 0 0 0 -82 0 0 0 0 0 0 0 0 0 0 0 0 0 0 0 0 0
-165 -248 -168 -82 -36 -19 -8 -1 -2 -1 -4 -15 -2 -1 -1 0 0 -11 -41 -55 -128 -127 0 0 0 0 0 0 0 0 0 0 0 0 0 0 -1 0 0 0 0 0 0
-63 -160 -226 -156 -39 -16 -9 -4 -6 -1 -4 -8 -3 -3 -2 -2 -9 -36 -59 -60 -8 0 0 0 0 0 0 0 0 0 0 0 0 0 0 0 0 0 0 0 0 0 0
-127 -159 -195 -46 -9 -151 0 -1 -2 -2 -2 -38 -8 -4 -12 -14 -35 -48 -93 0 0 0 0 0 0 -19 -191 0 0 0 0 0 0 0 0 0 0 0 0 0 0 0 0
-41 -49 -48 0 0 0 0 -33 -3 -1 -1 -17 -10 -17 -20 -19 -68 0 0 0 0 0 0 0 0 -31 -264 0 0 0 0 0 0 0 0 0 0 0 0 0 0 0 0
-88 -93 0 0 0 0 0 -1 -39 -4 -3 -1 -8 -12 -22 -35 0 0 0 0 0 0 0 0 0 0 0 0 0 0 0 0 0 0 0 0 0 0 0 0 0 0 0
0 -1 0 0 0 0 0 0 -2 -25 -27 -16 -44 -47 -20 -49 0 0 0 0 0 0 0 0 0 0 0 0 0 0 0 0 0 0 0 0 0 0 0 0 0 0 0
0 0 0 0 0 0 0 0 -44 -11 0 -64 -143 -148 -154 0 0 0 0 0 0 0 0 0 0 0 0 0 0 0 0 0 0 0 0 -2 0 0 0 0 0 0 0
0 0 0 0 0 0 -1 0 0 0 0 -121 -153 -193 -246 -301 0 0 0 0 0 0 0 0 0 0 0 0 0 0 0 0 0 0 0 0 -1 0 0 0 0 0 0
0 0 0 0 0 -1 0 -2 -3 -22 -84 -132 -187 -241 -322 -142 0 0 0 0 0 0 0 0 0 0 0 0 0 0 0 0 0 0 0 0 0 -1 0 0 0 0 0
0 0 0 0 -1 -3 0 0 -3 0 0 0 -114 0 0 0 0 0 0 0 0 0 0 0 0 0 0 0 0 0 0 0 0 0 0 0 0 0 -1 0 0 0 0
0 0 0 0 0 0 0 0 0 0 -56 -44 0 -48 -299 -147 0 0 0 0 0 0 0 0 0 0 0 0 0 0 0 0 0 0 0 0 0 0 0 0 0 0 0
0 0 0 0 0 0 0 0 0 0 -47 -115 -162 -213 -275 0 0 0 0 0 0 0 0 0 0 0 0 0 0 0 0 0 0 0 0 0 0 0 0 0 0 0 0
0 0 0 0 0 0 0 0 0 0 0 0 -43 -185 -186 -101 -187 0 0 0 0 0 0 0 0 0 0 0 0 0 0 0 0 0 0 0 0 0 0 0 0 0 0
0 0 0 0 0 0 0 0 0 -56 0 0 0 -199 -202 -177 -222 -257 0 0 0 0 0 0 0 0 0 0 0 0 0 0 0 0 0 0 0 0 0 0 0 0 0
0 0 0 0 0 0 0 0 0 0 0 0 0 0 0 -219 -223 -204 0 0 0 0 0 0 0 0 0 0 0 0 0 0 0 0 0 0 0 0 0 0 0 0 0
0 0 0 0 0 0 0 0 0 0 0 0 0 0 0 0 -159 0 0 0 0 0 0 0 0 0 0 0 0 0 0 0 0 0 0 0 0 0 0 0 0 0 0
0 -1 0 0 0 0 0 0 0 0 0 0 0 0 0 0 0 0 0 0 0 0 0 0 0 0 0 0 0 0 0 0 0 0 0 0 0 0 0 0 0 0 0
0 0 0 0 0 0 0 0 0 0 0 0 0 0 0 0 0 0 -219 0 0 0 0 0 0 0 0 0 0 0 0 0 0 0 0 0 0 0 0 0 0 0 0
0 0 0 0 0 0 0 0 0 0 0 0 0 0 0 0 0 0 -253 -262 -284 0 0 0 0 0 0 0 0 0 0 0 0 0 0 0 0 0 0 0 0 0 0
Wind_Speed
1 8 11 14 15 17 15 16 24 22 29 22 25 25 25 24 24 24 24 23 24 25 27 27 25 26 26 25 23 22 22 20 20 20 21 22 22 21 22 21 18 16 21
3 6 14 15 18 19 20 17 16 22 31 25 23 24 25 24 25 25 25 25 25 25 27 27 26 27 27 24 22 22 22 21 19 19 20 21 21 22 22 20 18 17 21
5 3 12 16 20 21 22 22 17 20 25 28 24 24 24 24 25 24 25 26 26 26 27 26 25 24 23 18 21 22 22 22 20 20 18 7 11 20 20 20 20 23 23
4 2 8 16 21 22 23 20 16 22 24 25 26 25 25 25 25 25 25 24 26 26 27 25 23 20 17 20 21 21 21 21 20 17 8 7 11 20 20 21 22 22 22
7 5 7 14 18 23 22 16 19 20 23 24 25 23 24 24 24 25 25 24 24 24 25 24 22 21 21 22 20 21 22 22 20 14 8 7 8 16 20 20 19 20 21
6 6 6 11 11 23 27 24 19 15 22 25 24 22 22 24 24 24 24 24 24 23 24 22 20 19 22 21 21 21 21 20 15 9 7 13 9 21 20 20 20 20 20
4 6 3 11 10 12 22 24 26 24 21 22 26 21 22 23 23 23 22 23 23 22 22 22 21 24 23 21 21 20 19 18 9 8 8 6 11 21 21 21 21 20 20
4 3 5 2 14 17 20 23 22 21 24 25 24 21 21 22 22 22 22 21 21 21 21 20 21 22 22 21 20 19 17 15 9 9 7 7 18 21 21 20 20 20 20
9 9 7 4 2 7 8 18 19 20 23 23 25 21 19 19 20 21 21 19 19 20 22 20 20 20 21 20 20 18 15 15 7 6 8 6 19 20 21 20 20 19 20
9 8 6 5 4 2 5 17 24 20 17 27 24 21 17 17 20 20 19 18 17 19 21 19 18 18 20 19 20 17 14 14 7 6 4 8 18 19 19 19 19 19 19
4 9 8 7 4 3 16 23 20 28 11 24 21 19 14 9 12 14 15 17 15 16 18 19 18 20 21 19 18 16 13 4 5 4 3 15 18 18 18 18 18 17 17
3 8 9 9 6 2 14 25 20 14 12 12 15 14 8 8 9 10 13 16 14 16 18 16 17 17 13 6 7 11 4 5 4 4 3 15 18 17 17 16 16 16 15
5 8 9 10 8 6 12 14 9 6 4 6 11 9 7 5 7 7 7 6 6 10 6 7 8 5 7 5 5 5 5 5 3 3 7 13 16 16 15 15 14 14 13
5 9 10 10 10 9 10 11 12 3 6 7 8 10 7 4 3 4 5 4 6 4 7 5 4 6 6 7 7 7 6 4 3 3 5 12 13 14 14 13 12 12 11
5 6 9 10 12 12 14 11 10 7 7 7 8 8 7 7 6 4 4 5 5 5 5 6 5 5 6 6 5 7 6 5 5 2 2 11 12 13 13 12 11 10 9
6 6 7 12 11 12 11 15 12 8 9 9 7 8 8 7 7 6 5 4 4 5 5 6 5 5 5 5 5 6 6 5 5 5 3 4 11 11 12 11 11 9 8
7 6 8 7 10 10 12 12 8 8 7 7 8 8 10 6 7 7 5 4 4 4 7 6 4 4 4 4 6 4 5 4 4 5 4 3 3 8 9 9 8 8 7
8 7 7 7 8 8 6 7 4 8 7 7 7 7 10 8 7 6 5 4 5 4 5 5 5 4 3 4 3 3 3 4 5 5 4 4 3 3 8 10 10 10 8
7 9 7 8 8 6 6 4 4 5 6 6 6 7 9 8 6 7 5 5 6 5 4 5 2 4 3 2 3 4 4 4 5 4 5 5 5 4 3 8 10 10 10
7 8 8 7 8 6 5 3 3 4 3 4 4 7 9 7 7 6 4 4 4 4 4 3 4 2 3 4 2 2 2 3 3 4 5 3 4 5 5 6 5 5 9
8 9 10 11 9 7 3 2 3 8 3 2 2 4 7 7 7 6 4 5 5 6 7 6 4 4 2 3 4 1 2 4 3 4 3 4 5 6 6 5 4 3 4
9 9 10 11 11 10 8 5 3 5 2 2 2 3 3 5 6 5 6 6 6 4 5 6 5 3 3 5 4 2 1 3 4 5 4 5 7 4 5 6 6 6 5
10 9 9 11 12 12 12 3 2 2 1 1 2 1 3 3 6 7 7 6 6 5 6 7 6 7 5 4 5 5 2 5 1 1 5 4 4 3 4 5 6 6 6
14 12 9 10 13 10 9 6 6 10 10 4 2 3 5 7 7 8 7 7 7 6 6 7 6 4 4 5 1 2 3 3 4 1 1 0 3 5 5 4 4 5 5
14 14 11 11 10 10 9 8 7 7 5 2 3 5 4 5 7 7 8 8 8 7 7 9 6 7 4 4 4 3 1 2 1 3 1 1 1 1 3 4 4 4 5
8 9 9 11 11 12 12 12 12 12 10 6 5 6 7 4 4 6 7 9 9 8 9 9 9 8 8 4 3 4 5 4 3 3 2 4 3 3 3 4 3 3 3
Wind_Direction
93 136 120 111 100 101 103 108 123 130 118 123 124 126 127 127 124 120 118 113 111 111 111 108 106 103 100 98 97 95 87 80 79 85 86 85 85 84 79 77 76 79 73
104 132 129 118 115 110 111 116 126 128 124 129 129 130 130 127 126 126 122 120 116 114 112 111 109 108 104 101 101 97 92 83 80 78 74 83 83 79 81 82 86 81 81
138 83 141 135 124 121 119 124 132 134 126 138 134 135 131 131 129 127 124 123 120 119 117 116 114 113 113 101 108 100 96 93 90 87 76 61 78 82 84 79 79 78 77
166 198 178 156 146 134 130 130 138 134 138 134 137 139 137 136 132 131 126 125 124 122 122 118 113 112 113 112 107 103 100 98 94 83 68 58 73 84 75 77 74 72 73
188 215 194 166 150 137 121 125 137 142 141 137 135 138 137 136 135 129 126 125 123 122 120 115 113 115 114 111 109 106 104 100 94 86 77 69 83 84 81 77 76 69 71
191 200 191 198 183 157 144 152 150 161 144 139 133 139 141 138 135 129 127 126 122 120 115 109 107 120 120 115 110 106 105 103 92 80 72 86 85 89 85 80 76 75 73
193 217 164 200 243 167 152 163 162 151 151 140 133 144 148 140 133 129 124 120 120 116 111 107 105 112 118 115 112 110 107 102 99 87 81 80 90 91 87 82 81 79 78
191 194 86 278 222 191 170 169 150 150 150 139 136 151 147 139 135 129 123 120 117 112 110 107 104 119 118 117 116 115 108 108 99 92 86 88 97 95 91 88 85 85 85
142 121 113 140 313 119 184 170 147 155 160 140 138 146 144 140 136 127 123 123 118 114 112 110 104 114 123 126 118 109 112 111 95 96 94 92 101 99 95 95 92 90 86
143 126 134 114 52 21 286 190 164 158 179 132 137 142 141 142 131 128 126 122 117 113 112 106 101 110 129 124 118 118 112 103 94 92 89 104 106 102 101 98 96 94 93
130 167 122 120 95 2 259 216 208 151 158 124 122 128 134 141 129 126 129 122 116 108 101 100 96 100 116 121 124 120 115 108 103 100 106 111 110 107 107 105 102 101 97
128 115 122 132 127 275 331 138 125 128 165 120 127 136 131 142 133 131 126 118 113 106 96 94 93 97 108 110 117 111 106 116 100 107 112 118 117 117 116 114 111 107 103
119 131 149 138 139 107 50 67 96 128 127 135 119 127 128 132 132 128 125 116 118 100 92 83 100 93 96 124 102 112 116 115 114 139 137 127 126 125 121 118 116 114 109
136 137 145 139 136 116 120 125 125 160 132 132 125 121 128 124 111 129 123 125 116 120 107 103 86 103 102 111 125 122 119 126 139 148 150 137 133 132 130 130 126 120 118
129 132 138 139 141 134 132 138 152 161 136 133 142 135 150 144 142 132 132 123 133 115 134 104 112 113 111 106 116 122 135 140 144 152 153 148 147 147 146 144 137 132 130
120 112 129 144 143 143 146 149 157 168 156 146 137 146 149 146 150 152 131 127 122 143 123 123 141 127 125 123 131 142 148 152 162 167 177 166 159 160 162 162 160 154 148
125 123 131 135 143 144 158 156 163 166 148 140 154 147 142 155 147 160 124 134 165 118 116 111 105 101 116 117 129 145 148 165 172 170 165 169 178 176 166 154 150 145 140
123 127 124 133 136 136 143 148 145 154 149 155 147 147 149 156 148 149 130 167 154 135 135 129 142 128 133 145 136 154 168 181 182 166 157 158 170 162 155 152 158 165 168
126 133 118 117 119 116 98 91 109 123 141 146 134 155 156 157 158 151 158 165 159 153 144 146 131 132 155 159 177 172 180 193 192 166 179 172 180 174 166 175 175 178 180
120 132 128 122 110 81 82 75 87 98 106 123 138 161 157 155 158 153 148 164 161 137 136 153 146 122 151 170 157 175 243 227 212 197 196 179 194 196 195 200 192 192 190
147 141 146 139 145 141 106 146 157 157 111 92 149 151 153 172 168 127 171 172 174 167 180 168 131 166 154 146 100 360 287 261 254 235 210 207 205 210 205 207 202 196 204
169 154 151 152 156 161 178 208 178 165 131 158 162 177 203 147 120 174 180 192 175 153 157 160 161 148 169 181 147 97 255 307 241 222 206 216 224 195 214 218 203 205 204
183 171 165 160 164 172 186 165 82 46 23 214 170 123 234 169 199 182 187 182 176 169 183 184 183 174 181 199 204 150 131 230 18 61 233 213 223 222 233 224 216 216 211
187 179 174 170 172 178 183 184 171 197 211 212 204 166 183 186 199 198 192 190 184 185 178 195 196 190 163 178 218 174 62 105 185 314 73 103 203 227 242 254 236 226 214
186 186 180 175 180 189 186 191 185 197 214 237 228 243 244 218 199 189 192 191 196 191 200 193 183 197 196 164 176 143 120 89 34 122 199 266 115 92 235 218 233 222 219
181 183 181 183 192 197 197 199 194 200 203 209 225 227 243 241 237 216 204 208 210 206 205 201 202 197 203 190 169 163 162 170 172 147 199 219 219 246 218 246 242 227 198